Pagina principale
METAR-TAF:

METAR-TAF

Aeroporti :

Lechfeld, Germania

latitudine: 48-11N, longitudine: 010-52E, altezza: 555 m

Osservazione

Il bollettino è stato emesso 24 minuti fa, alle 16:20 UTC
Vento 1 kt da ovest/sud-ovest
Temperature 17°C
Umidità 45%
Pressione 1017 hPa
Visibilità 10 km o più
Poco nuvoloso ad un'altezza di 5000 ft

METAR: ETSL 131620Z 25001KT 9999 FEW050 17/05 Q1017 BLU+

Ora: 18:44 (16:44 UTC)


TAF: mancante

Osservazioni e previsioni meteorologiche di più di 4000 aeroporti (messaggi METAR e TAF).

Le stazioni disponibili sono rappresentate dai dischi gialli e rossi sulla carta.

Puntare il mouse per vedere il nome della stazione.

Clicca sopra per visualizzare le osservazioni e previsioni meteorologiche.

Per cambiare la mappa : fare clic sui pulsanti verdi con una croce nera per ingrandire, il pulsante verde con un trattino per diminuire, o sulla freccia verde per le mappe adiacenti.


METAR-TAF: